User: anonymous   Login
Location: La Fredeussais
(48.1780°N, 1.3980°W)
Time: 12:45:53
(UTC+00:00)
Language:

Tiangong - Orbit

View from above orbital plane
View from above orbital plane
View from above satellite
View from above satellite

Ground track
Ground track

The orbit data is extracted from the following two-line orbital elements,

1 48274U 21035A   21261.62535688  .00041265  00000-0  46708-3 0  9997
2 48274  41.4704  73.0000 0004226 275.5499 169.8424 15.61637078 22318
Epoch (UTC): 18 September 2021 15:00:30
Eccentricity: 0.0004226
inclination: 41.4704°
perigee height: 380 km
apogee height: 386 km
right ascension of ascending node: 73.0000°
argument of perigee: 275.5499°
revolutions per day: 15.61637078
mean anomaly at epoch: 169.8424°
orbit number at epoch: 2231

The dashed part of the orbit path shows where the satellite is in the earth's shadow,  

DLR